Terug naar catalogus

STARLINK-33975

ActiefCommunicatieVLEO
NORAD 63802·PAYLOAD·🇺🇸 United States

Gelanceerd May 2, 2025 vanaf Cape Canaveral Space Force Station

Loading…

Volgende Passages (komende 24 uur)

TLE

VersSource: CelesTrak SupGP

Epoch: Sep 14, 2026, 14:01 UTC

1 63802C 25091AC  26257.58451389 -.00025839  00000+0 -93587-3 0  2571
2 63802  43.0025  65.4406 0001380 265.4987 133.1908 15.27592081    19

Volg STARLINK-33975 in realtime met AllMySat

Download on the App Store